2023/11/08 00:00:00, 0.0, 8.1
2023/11/08 00:10:00, 0.0, 7.8
2023/11/08 00:20:00, 0.0, 7.7
2023/11/08 00:30:00, 0.0, 7.6
2023/11/08 00:40:00, 0.0, 7.8
2023/11/08 00:50:00, 0.0, 7.5
2023/11/08 01:00:00, 0.0, 7.2
2023/11/08 01:10:00, 0.0, 7.2
2023/11/08 01:20:00, 0.0, 6.9
2023/11/08 01:30:00, 0.0, 6.9
2023/11/08 01:40:00, 0.0, 6.9
2023/11/08 01:50:00, 0.0, 6.7
2023/11/08 02:00:00, 0.0, 6.6
2023/11/08 02:10:00, 0.0, 6.5
2023/11/08 02:20:00, 0.0, 6.1
2023/11/08 02:30:00, 0.0, 6.2
2023/11/08 02:40:00, 0.0, 6.5
2023/11/08 02:50:00, 0.0, 6.1
2023/11/08 03:00:00, 0.0, 5.9
2023/11/08 03:10:00, 0.0, 5.9
2023/11/08 03:20:00, 0.0, 5.9
2023/11/08 03:30:00, 0.0, 5.7
2023/11/08 03:40:00, 0.0, 6.0
2023/11/08 03:50:00, 0.0, 5.9
2023/11/08 04:00:00, 0.0, 5.9
2023/11/08 04:10:00, 0.0, 5.6
2023/11/08 04:20:00, 0.0, 5.4
2023/11/08 04:30:00, 0.0, 5.3
2023/11/08 04:40:00, 0.0, 5.7
2023/11/08 04:50:00, 0.0, 5.4
2023/11/08 05:00:00, 0.0, 5.5
2023/11/08 05:10:00, 0.0, 5.6
2023/11/08 05:20:00, 0.0, 5.6
2023/11/08 05:30:00, 0.0, 5.6
2023/11/08 05:40:00, 0.0, 5.3
2023/11/08 05:50:00, 0.0, 5.4
2023/11/08 06:00:00, 0.0, 5.4
2023/11/08 06:10:00, 0.0, 5.2
2023/11/08 06:20:00, 0.0, 5.3
2023/11/08 06:30:00, 0.0, 5.1
2023/11/08 06:40:00, 0.0, 5.1
2023/11/08 06:50:00, 0.0, 5.4
2023/11/08 07:00:00, 0.0, 5.6
2023/11/08 07:10:00, 0.0, 5.7
2023/11/08 07:20:00, 0.0, 6.1
2023/11/08 07:30:00, 0.0, 6.1
2023/11/08 07:40:00, 0.0, 6.3
2023/11/08 07:50:00, 0.0, 6.7
2023/11/08 08:00:00, 0.0, 7.3
2023/11/08 08:10:00, 0.0, 7.5
2023/11/08 08:20:00, 0.0, 7.8
2023/11/08 08:30:00, 0.0, 8.0
2023/11/08 08:40:00, 0.0, 8.3
2023/11/08 08:50:00, 0.0, 8.7
2023/11/08 09:00:00, 0.0, 9.5
2023/11/08 09:10:00, 0.0,10.4
2023/11/08 09:20:00, 0.0,11.1
2023/11/08 09:30:00, 0.0,11.7
2023/11/08 09:40:00, 0.0,12.4
2023/11/08 09:50:00, 0.0,14.4
2023/11/08 10:00:00, 0.0,14.7
2023/11/08 10:10:00, 0.0,15.0
2023/11/08 10:20:00, 0.0,16.0
2023/11/08 10:30:00, 0.0,17.1
2023/11/08 10:40:00, 0.0,17.3
2023/11/08 10:50:00, 0.0,17.8
2023/11/08 11:00:00, 0.0,18.3
2023/11/08 11:10:00, 0.0,18.3
2023/11/08 11:20:00, 0.0,18.3
2023/11/08 11:30:00, 0.0,18.9
2023/11/08 11:40:00, 0.0,18.5
2023/11/08 11:50:00, 0.0,19.7
2023/11/08 12:00:00, 0.0,20.0
2023/11/08 12:10:00, 0.0,20.8
2023/11/08 12:20:00, 0.0,20.9
2023/11/08 12:30:00, 0.0,21.3
2023/11/08 12:40:00, 0.0,21.1
2023/11/08 12:50:00, 0.0,21.0
2023/11/08 13:00:00, 0.0,21.7
2023/11/08 13:10:00, 0.0,21.3
2023/11/08 13:20:00, 0.0,21.5
2023/11/08 13:30:00, 0.0,21.9
2023/11/08 13:40:00, 0.0,22.2
2023/11/08 13:50:00, 0.0,21.9
2023/11/08 14:00:00, 0.0,21.9
2023/11/08 14:10:00, 0.0,22.0
2023/11/08 14:20:00, 0.0,23.7
2023/11/08 14:30:00, 0.0,25.3
2023/11/08 14:40:00, 0.0,25.0
2023/11/08 14:50:00, 0.0,26.2
2023/11/08 15:00:00, 0.0,25.9
2023/11/08 15:10:00, 0.0,27.8
2023/11/08 15:20:00, 0.0,27.9
2023/11/08 15:30:00, 0.0,25.9
2023/11/08 15:40:00, 0.0,27.0
2023/11/08 15:50:00, 0.0,20.9
2023/11/08 16:00:00, 0.0,18.4
2023/11/08 16:10:00, 0.0,18.2
2023/11/08 16:20:00, 0.0,16.7
2023/11/08 16:30:00, 0.0,15.8
2023/11/08 16:40:00, 0.0,15.3
2023/11/08 16:50:00, 0.0,14.9
2023/11/08 17:00:00, 0.0,14.5
2023/11/08 17:10:00, 0.0,13.9
2023/11/08 17:20:00, 0.0,13.5
2023/11/08 17:30:00, 0.0,13.2
2023/11/08 17:40:00, 0.0,13.0
2023/11/08 17:50:00, 0.0,12.3
2023/11/08 18:00:00, 0.0,12.1
2023/11/08 18:10:00, 0.0,11.8
2023/11/08 18:20:00, 0.0,11.7
2023/11/08 18:30:00, 0.0,11.3
2023/11/08 18:40:00, 0.0,11.1
2023/11/08 18:50:00, 0.0,10.9
2023/11/08 19:00:00, 0.0,10.6
2023/11/08 19:10:00, 0.0,10.4
2023/11/08 19:20:00, 0.0,10.5
2023/11/08 19:30:00, 0.0,10.1
2023/11/08 19:40:00, 0.0, 9.8
2023/11/08 19:50:00, 0.0, 9.7
2023/11/08 20:00:00, 0.0, 9.5
2023/11/08 20:10:00, 0.0, 9.4
2023/11/08 20:20:00, 0.0, 9.3
2023/11/08 20:30:00, 0.0, 9.1
2023/11/08 20:40:00, 0.0, 8.7
2023/11/08 20:50:00, 0.0, 8.9
2023/11/08 21:00:00, 0.0, 8.6
2023/11/08 21:10:00, 0.0, 8.5
2023/11/08 21:20:00, 0.0, 8.5
2023/11/08 21:30:00, 0.0, 8.9
2023/11/08 21:40:00, 0.0, 9.0
2023/11/08 21:50:00, 0.0, 9.3
2023/11/08 22:00:00, 0.0, 8.9
2023/11/08 22:10:00, 0.0, 9.0
2023/11/08 22:20:00, 0.0, 9.1
2023/11/08 22:30:00, 0.0, 8.8
2023/11/08 22:40:00, 0.0, 8.8
2023/11/08 22:50:00, 0.0, 8.7
2023/11/08 23:00:00, 0.0, 8.6
2023/11/08 23:10:00, 0.0, 8.3
2023/11/08 23:20:00, 0.0, 7.9
2023/11/08 23:30:00, 0.0, 7.9
2023/11/08 23:40:00, 0.0, 7.9
2023/11/08 23:50:00, 0.0, 7.9
